Wind_Speed
51 49 46 42 35 34 33 33 32 32 34 35 35 32 32 34 36 37 37 38 39 41 43 45 47 49 51 54 56 58 60 64 67 66 67 67 67 66 65 64 64 64 66
53 53 49 46 44 43 43 45 39 36 37 40 40 39 37 38 40 37 40 43 43 43 44 46 49 50 52 53 53 54 58 62 63 65 67 69 69 67 70 69 71 70 70
58 55 52 50 48 48 48 47 44 41 40 43 44 44 40 41 41 37 38 41 43 46 47 49 48 49 53 58 61 62 63 65 67 67 67 69 68 68 69 70 69 69 68
60 59 56 52 51 51 51 50 48 45 45 44 47 46 43 40 42 43 43 46 48 45 48 51 52 55 59 62 67 69 69 69 67 69 70 68 67 68 71 69 71 69 68
63 62 60 56 54 54 53 52 51 49 48 47 48 50 43 45 47 46 50 52 49 50 52 52 54 59 63 65 70 67 67 66 67 66 66 66 69 69 67 65 66 66 66
66 66 64 61 58 57 56 55 54 53 51 48 50 51 50 52 52 52 55 54 54 53 56 53 59 63 63 69 72 69 69 70 70 66 66 63 62 61 61 63 63 61 60
70 69 66 63 61 60 60 58 57 55 54 52 52 53 52 56 53 55 53 52 54 55 57 61 68 70 74 75 72 71 73 71 64 60 61 58 56 53 53 54 57 59 59
72 72 70 68 66 64 63 62 61 58 57 57 55 55 55 59 60 58 50 50 53 57 62 66 71 76 75 73 69 74 73 65 61 57 55 51 50 48 48 50 52 54 57
76 73 73 70 70 69 67 66 64 63 61 61 61 61 61 63 63 57 54 53 59 59 64 71 75 73 70 68 72 76 68 61 55 50 48 45 47 47 50 51 53 56 56
73 74 75 74 72 73 72 72 70 68 65 65 64 63 69 60 55 57 57 56 60 65 69 71 75 73 69 70 74 69 60 53 49 46 45 48 50 51 51 51 53 54 55
80 76 76 76 74 72 68 70 71 73 71 68 65 60 51 56 58 57 56 61 68 71 73 74 75 70 69 71 70 60 52 46 45 45 49 49 49 49 50 50 50 52 52
79 81 79 78 75 74 72 68 65 63 63 67 68 65 62 65 67 64 66 70 73 74 74 73 76 73 70 68 63 51 48 45 45 46 45 44 45 46 46 47 48 49 50
73 76 78 77 77 74 74 76 77 74 68 63 64 66 66 66 68 70 70 71 72 74 74 74 76 71 67 63 50 47 44 44 45 46 45 44 44 43 44 45 46 48 50
78 76 77 77 77 77 75 75 75 73 72 71 68 67 67 69 71 71 71 72 72 73 72 70 68 67 64 51 47 41 40 41 41 42 43 44 46 46 46 45 46 47 48
74 79 78 77 75 74 76 77 76 74 73 72 72 72 72 73 71 73 72 72 75 72 70 72 68 64 52 43 41 43 43 44 45 46 45 45 45 45 47 49 50 50 49
67 68 72 72 74 76 76 75 77 76 72 72 72 72 72 70 71 71 70 68 68 65 67 66 62 54 42 39 39 42 44 46 47 48 49 50 52 54 55 55 56 55 55
68 63 64 68 68 71 75 75 73 72 71 70 70 70 71 68 66 66 68 67 65 63 62 60 55 43 42 42 42 45 47 48 48 49 50 52 52 53 55 57 58 59 61
69 67 63 63 64 66 68 70 71 70 67 66 64 65 66 63 64 68 68 67 65 60 57 56 48 45 44 43 44 44 45 45 46 48 49 51 53 55 57 59 60 62 64
71 67 65 62 60 60 60 60 61 67 67 65 63 63 62 64 68 70 68 66 58 55 51 48 46 44 41 42 44 45 46 47 48 50 52 53 55 58 60 62 65 68 70
74 70 64 63 63 60 58 55 53 54 61 67 68 68 69 69 71 67 60 54 52 51 45 44 41 40 43 45 47 46 49 51 52 54 56 59 61 64 67 69 71 73 76
75 71 65 62 62 58 52 51 52 55 58 58 59 64 67 67 62 57 53 50 49 45 41 41 42 43 47 48 50 50 53 56 60 63 66 69 70 74 77 79 81 84 85
71 71 67 63 60 55 50 48 46 48 51 53 54 52 52 52 51 51 49 47 44 41 43 43 44 48 51 53 55 57 59 61 62 67 71 75 77 80 84 87 89 92 93
69 70 68 64 61 53 49 47 46 46 48 45 44 47 48 47 47 47 44 41 40 41 43 47 48 52 53 55 58 59 61 65 69 79 82 84 84 88 93 96 98 99 99
69 68 67 64 61 54 49 47 46 47 48 45 45 44 44 43 41 41 40 40 42 45 48 51 53 56 58 62 64 66 68 69 72 76 87 96 99 103 106 108 104 100 97
65 67 65 63 62 55 51 49 46 45 45 45 43 42 40 40 42 40 41 43 47 50 53 56 58 61 64 66 69 73 75 77 81 79 81 91 100 108 109 101 96 94 95
63 64 65 65 63 55 52 48 45 45 45 43 42 40 40 42 43 44 45 47 51 54 58 60 63 67 69 72 75 77 80 84 91 94 94 97 100 105 99 98 98 99 99
Wind_Direction
258 259 260 261 258 256 256 263 270 274 272 273 275 281 287 286 283 282 279 281 284 287 290 290 290 291 292 290 289 289 289 289 289 287 285 284 284 282 282 282 281 281 281
255 258 256 259 258 255 258 265 268 269 271 272 271 277 284 286 287 280 276 277 280 282 285 290 293 295 295 293 296 296 296 295 293 288 286 283 282 281 281 281 281 281 281
255 255 256 256 258 261 262 263 265 268 268 270 272 276 285 284 285 275 278 281 283 290 292 294 294 293 295 293 294 297 297 294 291 289 288 285 285 281 282 280 280 281 278
252 254 255 256 257 258 261 264 265 266 271 272 268 274 285 285 281 274 283 284 289 290 291 294 294 294 297 297 299 298 298 297 296 286 284 284 282 279 279 277 276 275 275
248 252 255 254 256 258 262 263 267 268 268 270 271 274 281 284 283 274 282 283 285 287 291 293 296 300 305 303 303 299 299 296 295 292 287 284 283 279 276 274 273 273 273
246 248 250 253 254 256 258 262 264 267 268 267 268 272 274 282 282 278 281 282 284 287 290 290 297 298 306 306 303 299 300 300 298 292 289 286 283 278 275 273 272 272 273
246 247 248 250 253 257 259 261 263 267 268 269 269 273 274 276 276 279 282 284 288 291 294 293 298 301 306 306 305 305 305 302 296 293 291 286 283 281 279 275 273 272 273
244 247 248 248 250 253 256 258 261 264 266 268 271 274 274 276 278 281 282 285 289 294 295 298 302 304 306 305 304 306 305 300 296 294 292 288 285 282 281 278 276 274 274
246 247 249 250 250 250 253 256 259 262 264 267 268 270 272 272 277 281 279 285 291 293 299 303 304 302 303 306 306 306 303 298 295 292 293 288 286 283 281 279 278 277 276
247 249 249 251 254 253 254 256 259 261 263 265 269 273 274 283 284 284 281 289 294 297 300 302 306 303 302 305 306 304 301 296 293 292 291 289 287 285 283 282 281 280 278
246 246 246 249 253 255 256 258 261 263 263 264 272 273 275 280 285 286 285 291 291 296 300 303 306 304 304 305 306 305 301 297 294 292 293 292 291 288 285 283 283 281 279
247 247 247 250 253 256 256 256 258 261 263 264 268 269 273 280 283 285 288 290 291 294 299 303 305 304 304 305 305 302 298 297 295 295 295 293 291 289 287 284 282 281 278
247 249 251 251 251 254 256 257 259 262 264 268 269 271 274 277 281 285 286 287 291 294 299 301 304 303 302 304 303 300 298 299 300 298 295 293 291 289 290 289 286 282 280
248 248 249 251 253 255 255 257 260 262 264 264 268 272 275 279 280 284 285 289 293 296 299 305 300 301 301 300 295 299 302 302 302 302 301 297 295 293 292 291 290 285 283
250 250 251 254 255 255 256 258 259 262 265 264 266 270 274 275 279 282 285 290 293 294 298 300 297 299 296 295 297 299 300 304 306 306 304 301 300 299 298 297 294 290 286
251 251 251 253 256 257 257 258 260 262 265 265 268 270 274 276 279 282 286 290 294 297 299 298 295 295 295 294 298 300 304 305 304 303 302 301 300 299 297 297 295 293 291
248 253 254 254 255 258 260 261 262 262 267 267 269 270 273 276 280 282 286 291 296 297 294 294 296 294 295 299 301 302 302 301 302 301 301 300 299 298 297 296 294 292 290
249 250 255 255 256 256 258 261 264 266 267 269 270 270 273 274 276 282 285 289 295 289 289 292 292 296 298 299 298 298 299 299 300 299 298 298 298 297 296 295 293 291 289
248 250 251 254 256 257 257 260 263 265 267 269 269 269 271 270 276 280 285 287 284 283 287 291 294 294 296 296 296 298 299 300 300 300 299 299 299 298 295 294 292 289 287
245 248 250 253 256 259 260 260 262 265 264 264 263 265 269 270 274 278 282 281 279 282 287 289 292 295 293 293 296 298 299 300 300 300 299 299 300 301 298 295 293 291 288
244 246 248 253 256 260 264 265 266 265 266 265 263 263 265 267 274 276 275 274 277 282 287 286 289 290 291 293 297 296 298 299 300 300 301 301 300 299 299 298 296 295 292
240 244 247 250 255 258 262 265 268 269 264 261 261 262 265 268 271 272 272 274 277 281 284 285 286 288 289 291 293 295 296 296 298 299 299 298 298 297 297 295 294 293 292
236 240 244 248 252 257 261 262 264 264 262 261 263 265 268 271 272 270 271 274 277 282 282 282 285 286 287 288 290 292 294 300 304 306 304 301 299 298 298 297 294 292 290
235 235 240 245 250 254 258 260 260 261 260 261 264 268 271 269 267 269 270 275 277 278 279 282 284 286 287 288 290 291 294 296 298 301 304 305 306 305 303 301 298 295 291
235 235 237 242 248 251 254 257 259 258 259 260 265 269 268 264 264 268 274 276 278 278 281 283 286 289 289 290 290 291 293 294 296 297 299 300 303 304 303 299 296 294 291
233 231 235 239 244 248 252 256 256 256 256 262 265 266 265 266 270 273 274 277 279 280 283 285 287 289 290 292 293 293 294 296 300 301 300 301 302 301 299 298 297 294 292
Height
10879 10880 10883 10885 10888 10889 10889 10889 10891 10892 10892 10892 10892 10892 10893 10892 10892 10892 10890 10888 10887 10886 10885 10884 10881 10880 10878 10877 10875 10873 10871 10867 10865 10862 10860 10858 10856 10854 10853 10851 10850 10847 10846
10871 10873 10876 10879 10881 10883 10884 10884 10885 10886 10886 10886 10886 10887 10887 10887 10886 10885 10884 10883 10882 10880 10879 10877 10876 10873 10871 10869 10867 10864 10862 10858 10855 10852 10849 10847 10844 10843 10840 10840 10838 10837 10835
10862 10866 10869 10872 10874 10875 10877 10878 10879 10880 10880 10879 10879 10879 10880 10880 10879 10878 10877 10876 10875 10874 10871 10870 10869 10867 10864 10861 10859 10855 10851 10848 10843 10840 10838 10836 10833 10831 10828 10826 10825 10823 10823
10853 10857 10861 10864 10866 10867 10868 10869 10871 10872 10872 10872 10872 10872 10873 10873 10872 10870 10869 10868 10867 10866 10864 10863 10861 10858 10855 10851 10847 10843 10840 10835 10831 10827 10824 10822 10820 10818 10816 10813 10811 10811 10810
10845 10848 10852 10855 10857 10858 10860 10861 10863 10864 10865 10865 10864 10864 10866 10865 10864 10862 10861 10860 10858 10857 10856 10854 10851 10848 10844 10840 10835 10829 10825 10821 10817 10814 10810 10807 10804 10802 10801 10800 10798 10798 10797
10836 10839 10842 10845 10847 10849 10851 10853 10854 10856 10856 10857 10857 10857 10858 10857 10857 10855 10853 10852 10850 10848 10847 10845 10842 10838 10833 10829 10824 10818 10813 10808 10802 10798 10794 10791 10789 10787 10787 10786 10785 10785 10784
10825 10828 10833 10836 10838 10840 10841 10843 10845 10846 10847 10847 10848 10848 10848 10848 10848 10846 10845 10843 10842 10840 10837 10833 10830 10825 10820 10816 10811 10806 10800 10794 10788 10784 10781 10777 10776 10774 10773 10774 10774 10774 10774
10812 10817 10823 10826 10829 10830 10831 10833 10835 10836 10837 10838 10839 10839 10839 10838 10838 10838 10836 10834 10833 10830 10828 10823 10819 10814 10808 10803 10799 10793 10786 10781 10776 10772 10768 10766 10764 10763 10762 10761 10763 10763 10762
10800 10806 10811 10815 10819 10820 10822 10824 10825 10827 10828 10829 10830 10830 10830 10829 10828 10828 10827 10825 10824 10821 10817 10813 10808 10802 10797 10791 10786 10779 10773 10768 10764 10761 10759 10757 10754 10753 10752 10752 10751 10751 10751
10787 10795 10800 10804 10808 10810 10812 10814 10816 10817 10819 10820 10821 10822 10821 10820 10818 10818 10818 10816 10814 10810 10807 10803 10797 10791 10786 10780 10774 10767 10761 10757 10754 10752 10751 10748 10745 10743 10740 10740 10740 10739 10738
10775 10781 10787 10793 10797 10800 10803 10805 10806 10807 10808 10811 10812 10812 10809 10809 10809 10809 10808 10805 10803 10799 10796 10791 10785 10778 10773 10768 10762 10756 10751 10748 10746 10744 10742 10739 10736 10733 10730 10729 10727 10726 10725
10764 10770 10773 10781 10787 10789 10792 10793 10794 10795 10798 10800 10801 10802 10801 10800 10799 10799 10797 10795 10791 10788 10785 10779 10775 10767 10761 10756 10751 10746 10742 10739 10737 10735 10732 10729 10726 10722 10720 10718 10716 10715 10714
10754 10757 10763 10769 10773 10776 10780 10781 10783 10784 10787 10790 10791 10791 10790 10790 10789 10789 10787 10783 10781 10778 10774 10768 10762 10755 10750 10745 10741 10737 10733 10729 10726 10725 10722 10719 10716 10713 10710 10708 10706 10704 10702
10739 10743 10749 10754 10759 10763 10767 10770 10770 10772 10776 10779 10780 10780 10780 10778 10778 10777 10775 10772 10770 10767 10762 10756 10750 10744 10740 10736 10733 10729 10724 10720 10717 10716 10713 10710 10706 10704 10701 10698 10696 10692 10692
10723 10732 10739 10744 10747 10751 10754 10757 10759 10761 10765 10767 10769 10769 10768 10768 10768 10766 10763 10761 10759 10756 10751 10745 10738 10733 10730 10726 10723 10720 10716 10713 10709 10707 10704 10701 10698 10695 10691 10689 10686 10682 10682
10712 10720 10728 10731 10733 10737 10740 10745 10748 10752 10753 10756 10758 10758 10757 10756 10756 10754 10751 10751 10747 10743 10739 10733 10727 10722 10718 10716 10714 10710 10706 10703 10701 10697 10694 10691 10688 10685 10682 10679 10676 10674 10670
10704 10709 10714 10720 10721 10725 10728 10732 10737 10741 10740 10744 10745 10746 10745 10745 10743 10741 10740 10739 10735 10732 10727 10722 10716 10711 10708 10706 10704 10700 10697 10694 10691 10687 10684 10681 10677 10674 10670 10667 10664 10661 10657
10695 10701 10705 10707 10710 10714 10718 10721 10725 10726 10729 10731 10733 10734 10734 10732 10730 10729 10728 10727 10724 10720 10716 10712 10706 10702 10698 10696 10694 10690 10687 10684 10681 10677 10673 10670 10666 10662 10658 10654 10651 10648 10643
10683 10690 10695 10696 10699 10703 10707 10712 10714 10715 10716 10718 10720 10720 10720 10720 10719 10717 10717 10715 10712 10709 10705 10702 10696 10692 10689 10687 10684 10681 10677 10674 10671 10667 10662 10658 10654 10649 10645 10641 10637 10633 10627
10670 10677 10684 10687 10690 10694 10698 10702 10704 10705 10706 10706 10708 10708 10708 10707 10708 10707 10704 10702 10700 10697 10694 10692 10688 10682 10679 10677 10675 10671 10667 10663 10660 10655 10650 10645 10641 10635 10630 10626 10621 10616 10610
10657 10666 10673 10677 10679 10684 10689 10691 10693 10694 10694 10694 10694 10694 10694 10694 10695 10696 10693 10690 10688 10686 10684 10682 10678 10674 10670 10666 10662 10661 10657 10651 10647 10641 10634 10629 10625 10619 10613 10607 10600 10594 10588
10646 10653 10660 10666 10670 10676 10679 10680 10682 10682 10682 10682 10682 10682 10682 10683 10684 10683 10681 10679 10678 10675 10674 10671 10668 10665 10661 10656 10652 10647 10642 10639 10635 10627 10620 10612 10608 10600 10594 10588 10580 10572 10565
10633 10641 10648 10654 10660 10667 10669 10671 10671 10672 10672 10672 10672 10672 10673 10673 10673 10672 10670 10669 10668 10665 10663 10660 10657 10654 10650 10646 10640 10635 10631 10623 10618 10603 10594 10590 10587 10578 10569 10561 10552 10545 10538
10619 10627 10635 10642 10648 10656 10659 10661 10661 10662 10663 10663 10663 10663 10664 10663 10662 10661 10660 10659 10657 10654 10651 10648 10644 10642 10638 10633 10627 10621 10617 10613 10609 10605 10583 10562 10555 10545 10535 10524 10516 10508 10501
10609 10617 10625 10631 10637 10644 10648 10650 10652 10653 10653 10654 10654 10654 10654 10653 10652 10651 10650 10649 10646 10643 10639 10636 10632 10628 10623 10618 10612 10605 10598 10592 10588 10589 10587 10567 10546 10526 10514 10501 10489 10480 10468
10596 10606 10614 10619 10625 10632 10637 10640 10642 10644 10645 10645 10645 10645 10644 10644 10643 10642 10640 10638 10635 10630 10626 10622 10618 10613 10608 10602 10595 10588 10580 10573 10562 10555 10554 10546 10540 10522 10497 10477 10461 10450 10441